Regional Weather Roundup
Issued by NWS

Home | Current Version | Previous Version | Text Only | Print | Product List | Glossary Off
Versions: 1 2 3 4 5 6 7 8 9 10 11 12 13 14 15 16 17 18 19 20 21 22 23 24 25 26 27 28 29 30 31 32 33 34 35 36 37 38 39 40 41 42 43 44 45 46 47 48 49 50

000
ASUS43 KBIS 221010
RWRND

NORTH DAKOTA REGIONAL WEATHER ROUNDUP
NATIONAL WEATHER SERVICE BISMARCK ND
500 AM CDT SUN OCT 22 2017

NOTE: "FAIR" INDICATES FEW OR NO CLOUDS BELOW 12,000 FEET WITH NO
SIGNIFICANT WEATHER AND/OR OBSTRUCTIONS TO VISIBILITY.


NDZ001>003-009>011-017-221100-
NORTHWEST NORTH DAKOTA

CITY           SKY/WX    TMP DP  RH WIND       PRES   REMARKS
WILLISTON      CLEAR     31  25  78 SW7       29.78F
MINOT          CLEAR     39  29  67 SW12      29.77R
MINOT AFB      CLEAR     34  27  76 W9        29.75R
$$

NDZ018>021-031>035-040>046-221100-
SOUTHWEST NORTH DAKOTA

CITY           SKY/WX    TMP DP  RH WIND       PRES   REMARKS
BISMARCK       CLEAR     35  28  75 SW5       29.86F
DICKINSON      CLEAR     37  22  54 SW15      29.83F
GARRISON         N/A     34  30  85 W7        29.81S
HETTINGER ARPT CLEAR     29  19  66 W6        29.90F
$$

NDZ004>008-012>016-024-026-027-054-221100-
NORTHEAST NORTH DAKOTA

CITY           SKY/WX    TMP DP  RH WIND       PRES   REMARKS
GRAND FORKS    CLEAR     45  36  70 SW15      29.73R
GRND FRKS AFB  CLEAR     42  34  72 W12       29.73R
DEVILS LAKE    CLEAR     41  34  76 W17       29.75R
$$

NDZ022-023-025-028>030-036>039-047>053-221100-
SOUTHEAST NORTH DAKOTA

CITY           SKY/WX    TMP DP  RH WIND       PRES   REMARKS
FARGO          CLEAR     43  36  76 SW12      29.82R
JAMESTOWN      CLEAR     40  31  70 W10       29.82S
$$




USA.gov is the U.S. government's official web portal to all federal, state and local government web resources and services.